Location: Dob?e?
(49.9411°N, 15.1496°E)
Time: 11:44:26
(UTC+00:00)

DELFI C3 - Pass Details

Date: 24 October 2021
Orbit: 529 x 543 km, 97.4° (Epoch: 29 November)

Event Time Altitude Azimuth Distance (km) Brightness Sun altitude
Exits shadow 18:30:46 44° 252° (WSW) 747 ? -26.3°
Maximum altitude 18:30:58 44° 261° (W) 742 ? -26.3°
Drops below altitude 10° 18:34:40 10° 335° (NNW) 1,789 ? -26.9°
Sets 18:36:52 0° 342° (NNW) 2,685 ? -27.3°
